Location: Indian Springs
(36.5700°N, 115.6700°W)
Time: 10:35:04
(UTC-07:00)

Daily predictions for brighter satellites

Satellite Brightness Start Highest point End
(mag) Time Altitude Azimuth Time Altitude Azimuth Time Altitude Azimuth
Okean 1-7 Rocket 4.3 20:16:08 10° SSW 20:20:29 60° W 20:24:50 10° N
Cosmos 2333 Rocket 2.6 20:16:18 10° SSW 20:21:55 71° WNW 20:27:35 10° NNE
Cosmos 1975 3.4 20:19:28 10° NNW 20:23:26 61° W 20:27:22 10° S
Cosmos 1242 Rocket 3.8 20:21:00 10° SSW 20:24:36 47° W 20:28:15 10° N
H-2A R/B 2.8 20:21:59 10° SSE 20:25:53 74° ENE 20:29:51 10° N
USA 186 1.5 20:24:35 10° SSE 20:27:36 88° ENE 20:30:26 10° N
Cosmos 2297 4.4 20:22:56 10° N 20:28:14 39° ENE 20:33:32 10° SE
ATLAS CENTAUR R/B 2.1 20:26:53 10° SW 20:31:47 75° WNW 20:36:51 10° NNE
Cosmos 2098 Rocket 2.6 20:28:57 10° N 20:32:16 89° WSW 20:36:22 10° S
Lacrosse 5 4.2 20:28:03 10° W 20:32:23 28° NW 20:36:45 10° NNE
Cosmos 1844 4.2 20:29:27 10° NNW 20:35:09 63° WSW 20:40:51 10° S
Cosmos 1844 Rocket 3.8 20:30:39 10° NW 20:35:59 44° WSW 20:41:17 10° S
Cosmos 158 Rocket 4.0 20:30:59 10° SSW 20:36:00 88° WNW 20:41:12 10° NNE
BREEZE-M DEB (TANK) 3.9 20:32:47 10° WNW 20:36:48 74° SW 20:51:07 11° SE
SeaSat 1 3.6 20:33:00 10° ESE 20:37:14 29° ENE 20:41:29 10° N
Hubble Space Telescope 3.1 20:36:02 10° SW 20:37:46 12° SSW 20:39:30 10° S
Cosmos 1025 Rocket 3.1 20:36:52 10° S 20:41:16 85° W 20:45:40 10° N
Cosmos 1892 Rocket 3.6 20:37:12 10° S 20:41:33 64° E 20:45:58 10° NNE
Cosmos 2228 4.2 20:38:08 10° NNE 20:41:52 26° ENE 20:44:52 14° SE
Cosmos 2251 Rocket 3.5 20:37:54 10° SSW 20:43:12 87° ESE 20:48:35 10° NNE
OTV 4 1.9 20:42:35 10° W 20:45:10 26° SSW 20:47:03 14° SSE
FENGYUN 3A 3.9 20:40:17 10° S 20:45:37 70° WSW 20:51:00 10° NNW
ALOS 3.1 20:47:46 10° S 20:52:18 51° W 20:56:52 10° NNW
IUS-17 SRM-1 4.3 20:49:59 10° WSW 20:52:58 33° SSE 21:00:44 12° ESE
Atlas Centaur 2 3.6 20:49:05 10° SW 20:55:49 34° SSE 21:03:13 10° E
Cosmos 1939 Rocket 3.1 20:55:29 15° SSE 20:58:44 56° ENE 21:02:49 10° N
COSMOS 2455 3.9 20:56:15 13° SSE 21:00:12 24° ESE 21:04:52 10° NE
Envisat 3.3 20:57:00 16° SE 21:00:55 49° ENE 21:05:49 10° N
Cosmos 2237 Rocket 3.9 20:55:47 10° SW 21:00:56 36° WNW 21:06:07 10° N
Nimbus 7 Rocket 4.4 20:55:20 10° NNE 21:01:18 68° ESE 21:07:08 10° S
ERS-1 Rocket 3.1 20:57:18 10° S 21:02:19 80° WSW 21:07:22 10° NNW
PSLV R/B 4.0 21:02:46 24° ESE 21:03:57 34° ENE 21:06:48 10° N
Cosmos 1110 Rocket 4.0 20:59:21 10° NNW 21:04:41 85° ENE 21:08:59 16° SSE
Meteor 1-15 Rocket 4.4 20:59:37 10° N 21:05:06 55° ENE 21:09:17 17° SSE
ATLAS 3B R/B 4.2 21:05:14 17° ESE 21:06:37 17° ESE 21:11:14 10° ENE
Cosmos 2285 Rocket 4.0 21:03:26 10° NNW 21:09:45 71° ENE 21:14:32 18° SSE
Cosmos 1726 Rocket 3.9 21:05:27 10° NNW 21:09:52 68° W 21:14:15 10° S
Cosmos 2278 Rocket 3.1 21:05:16 10° NW 21:10:39 45° WSW 21:16:01 10° S
Lacrosse 5 rocket 3.3 21:11:15 10° WSW 21:14:40 30° NW 21:18:16 10° NNE
Cosmos 2058 Rocket 3.2 21:14:10 10° NNW 21:18:32 72° W 21:22:03 15° S
USA 234 3.7 21:15:11 18° ESE 21:20:01 56° NE 21:26:25 10° NW
Abrixas rocket 3.7 21:17:05 10° NW 21:20:12 31° NNE 21:21:51 20° ENE
Gbstr 26 Del rocket 4.5 21:14:06 10° NW 21:21:36 86° SW 21:27:06 23° SE
Aureole 2 Rocket 2.7 21:17:42 10° SSW 21:21:48 87° W 21:25:34 10° NNE
Cosmos 1666 2.6 21:18:30 10° N 21:22:25 76° E 21:24:20 29° SSE
Cosmos 1464 Rocket 4.0 21:18:27 10° N 21:24:36 83° W 21:29:56 14° S
Okean 2 4.1 21:20:33 10° SSW 21:24:38 55° W 21:28:45 10° N
OAO 3 Copernicus 4.2 21:19:46 10° W 21:24:48 72° S 21:27:35 26° ESE
Cosmos 1602 Rocket 3.5 21:22:08 19° S 21:25:18 70° E 21:29:46 10° NNE
Cosmos 2369 Rocket 4.1 21:22:03 10° NNE 21:25:23 16° NE 21:28:01 12° E
SL-16 R/B 3.1 21:21:42 10° SW 21:27:10 50° WNW 21:32:40 10° N
ARGOS 3.9 21:29:44 26° ESE 21:31:56 37° ENE 21:36:54 10° N
H-2A R/B 3.7 21:31:07 15° E 21:32:26 17° ENE 21:35:32 10° NNE
Cosmos 1812 Rocket 3.8 21:33:59 10° N 21:38:15 51° E 21:39:23 40° SE
Cosmos 1461 3.5 21:35:02 10° NNW 21:39:08 43° NE 21:40:09 36° E
PSLV R/B 3.2 21:36:52 10° WSW 21:40:24 69° SSE 21:40:53 58° ESE
SPOT 1/Viking Rocket 3.7 21:38:23 33° SE 21:40:29 56° ENE 21:45:32 10° N
Cosmos 1238 4.5 21:41:31 52° E 21:41:31 52° E 21:44:22 10° NNE
UNK 4.2 21:36:22 10° NNE 21:41:47 84° WNW 21:47:28 10° SSW
Cosmos 2034 Rocket 4.1 21:35:30 10° N 21:41:54 82° W 21:46:17 21° S
Timation 1 Rocket 4.3 21:39:44 10° NNW 21:45:46 75° ENE 21:48:24 35° SE
Cosmos 1515 3.9 21:48:48 50° E 21:48:48 50° E 21:52:33 10° NNE
H-2A R/B 4.0 21:45:37 10° SSW 21:49:04 25° W 21:52:37 10° NW
MetOp-B 4.2 21:51:23 31° S 21:54:00 77° WSW 21:59:22 10° NNW
CZ-4 R/B 3.8 21:50:44 10° NNE 21:55:44 74° ESE 21:57:41 38° S
Cosmos 1603 3.8 21:50:09 10° SSW 21:55:46 78° WNW 22:01:24 10° NNE
Geosat 3.9 21:52:42 10° NNE 21:57:44 71° ESE 22:00:05 32° S
SPOT 5 3.5 21:56:47 25° SSW 21:58:57 43° W 22:03:07 10° NNW
Cosmos 1626 Rocket 4.5 21:55:59 16° SSW 21:59:18 47° W 22:03:35 10° N
SeaSat 1 3.7 22:12:45 25° SSW 22:14:38 33° WSW 22:19:05 10° NW
Landsat 7 3.9 22:14:36 56° E 22:14:59 58° ENE 22:19:40 10° N
Cosmos 1953 Rocket 3.9 22:15:37 52° ENE 22:15:37 52° ENE 22:19:28 10° NNE
DELTA 2 DEB (DPAF) 4.0 22:18:19 75° ESE 22:18:34 79° ENE 22:23:04 10° N
YAOGAN 6 3.7 22:21:59 37° WSW 22:22:10 37° W 22:25:40 10° NNW
Cosmos 1943 3.1 22:21:12 56° SSE 22:22:18 71° ESE 22:27:58 10° NNE
Cosmos 2346 Rocket 4.4 22:26:02 41° SSW 22:28:21 83° W 22:34:32 10° N
CZ-4C R/B 3.5 22:29:37 76° W 22:29:37 76° W 22:33:45 10° NNW
Terra 2.0 22:30:52 58° ENE 22:30:52 58° ENE 22:35:28 10° N
Spot 2 4.3 22:28:48 10° NNE 22:33:17 68° ENE 22:33:17 68° ENE
SL-08 RB Rocket 4.1 22:39:27 52° WSW 22:39:40 52° W 22:44:07 10° NNW
IGS 5A 4.1 22:42:30 51° NNE 22:42:30 51° NNE 22:45:46 10° N
Cosmos 1943 Rocket 3.6 22:37:23 10° N 22:41:52 25° ENE 22:42:31 24° ENE
Atlas Centaur 2 3.1 22:37:10 10° WSW 22:45:08 54° S 22:46:01 52° SSE
Cosmos 407 Rocket 3.4 22:45:24 80° ENE 22:45:24 80° ENE 22:50:31 10° NNE
COSMOS 2455 3.7 22:39:59 10° SW 22:45:45 48° WNW 22:51:34 10° NNE
Cosmos-2242 4.3 22:42:39 10° N 22:45:36 32° NE 22:45:36 32° NE
Cosmos 1758 Rocket 4.0 22:50:23 61° NNW 22:50:23 61° NNW 22:54:10 10° N
CARTOSAT-1 4.1 22:54:54 56° NW 22:54:54 56° NW 22:58:28 10° NNW
Cosmos 1953 4.2 22:50:49 10° NNE 22:52:49 24° NNE 22:52:49 24° NNE
ATLAS 3B R/B 2.9 22:52:19 31° SSW 22:56:30 87° WNW 23:04:07 10° NNE
Lacrosse 4 Rocket 3.0 23:03:16 30° NNE 23:03:16 30° NNE 23:05:24 10° NNE
USA 234 3.9 23:02:32 37° SW 23:03:06 38° SW 23:09:08 10° WNW
Cosmos 1954 Rocket 4.5 23:04:25 52° NE 23:04:25 52° NE 23:08:37 10° NNE
Cosmos 2369 Rocket 2.2 23:04:20 10° NNW 23:09:48 72° W 23:09:48 72° W
H-2A R/B 2.6 23:11:45 48° W 23:11:45 48° W 23:16:14 10° NNW
Cosmos 1092 Rocket 4.5 23:12:49 47° ENE 23:12:49 47° ENE 23:18:22 10° NNE
COSMOS 2406 3.9 23:26:16 44° NE 23:26:16 44° NE 23:30:20 10° NNE
USA 238 DEB 3.8 23:26:50 63° E 23:26:50 63° E 23:33:18 10° NE
USA 238 3.8 23:26:58 62° E 23:26:58 62° E 23:33:23 10° NE
Nadezhda 4 Rocket 3.9 23:26:47 86° ENE 23:26:47 86° ENE 23:33:05 10° N
Cosmos 2263 4.4 23:23:43 10° NNW 23:28:39 63° WNW 23:28:39 63° WNW
